Crescent City, CA

8:57 PM PDT on April 20, 2018 (GMT -0700)
McNamara

Weather History for KCEC - January, 2013

Change the Weather History Date:

Thursday, January 24, 2013

  Actual Average Record
Temperature  
Mean Temperature 47 °F 48 °F  
Max Temperature 52 °F 54 °F 69 °F (2014)
Min Temperature 42 °F 41 °F 26 °F (1949)
Degree Days  
Heating Degree Days 18 17  
Month to date heating degree days 498 408  
Since 1 July heating degree days 2556 2564  
Cooling Degree Days 0 0  
Month to date cooling degree days 0 0  
Year to date cooling degree days 0 0  
Moisture  
Dew Point 47 °F    
Average Humidity 95    
Maximum Humidity 100    
Minimum Humidity 89    
Precipitation  
Precipitation 0.01 in 0.26 in 4.90 in (1994)
Month to date precipitation 3.50 8.61  
Year to date precipitation 3.50 8.61  
Since 1 July precipitation 37.20  
Snow  
Snow 0.00 in - - ()
Month to date snowfall 0.0  
Since 1 July snowfall 0.0  
Snow Depth 0.00 in    
Sea Level Pressure  
Sea Level Pressure 30.16 in    
Wind  
Wind Speed 3 mph (South)    
Max Wind Speed 9 mph    
Max Gust Speed 12 mph    
Visibility 3 miles    
Events Fog , Rain    
T = Trace of Precipitation, MM = Missing Value Source: NWS Daily Summary

Daily Weather History Graph

Daily Weather History Graph

Search for Another Location

Airport or City:

Astronomy

Jan. 24, 2013 Rise Set
Actual Time 7:36 AM PST 5:22 PM PST
Civil Twilight 7:06 AM PST 5:52 PM PST
Nautical Twilight 6:32 AM PST 6:26 PM PST
Astronomical Twilight 5:59 AM PST 6:59 PM PST
Moon 3:29 PM PST (1/24) 5:38 AM PST (1/24)
Length of Visible Light 10h 46m
Length of Day
9h 46m
Waxing Gibbous, 95% of the Moon is Illuminated
Jan 24
Waxing Gibbous
Jan 26
Full
Feb 3
Last Quarter
Feb 9
New
Feb 17
First Quarter

Hourly Weather History & Observations

Time (PST) Temp. Windchill Dew Point Humidity Pressure Visibility Wind Dir Wind Speed Gust Speed Precip Events Conditions
12:05 AM 46.4 °F - 46.4 °F 100% 30.14 in 2.0 mi Calm Calm - N/A   Overcast
12:18 AM 46.4 °F - 46.4 °F 100% 30.14 in 4.0 mi Calm Calm - N/A   Overcast
12:56 AM 46.9 °F - 46.0 °F 97% 30.15 in 3.0 mi Calm Calm - 0.00 in Rain Light Rain
1:38 AM 46.4 °F 45.2 °F 46.4 °F 100% 30.14 in 2.5 mi NNW 3.5 mph - 0.01 in   Overcast
1:45 AM 46.4 °F - 46.4 °F 100% 30.15 in 4.0 mi Calm Calm - 0.01 in   Overcast
1:54 AM 46.4 °F - 46.4 °F 100% 30.14 in 1.8 mi Calm Calm - 0.01 in   Overcast
1:56 AM 46.9 °F - 46.0 °F 97% 30.14 in 1.5 mi Calm Calm - 0.01 in   Overcast
2:10 AM 46.4 °F 45.2 °F 46.4 °F 100% 30.15 in 1.2 mi NW 3.5 mph - N/A   Overcast
2:25 AM 46.4 °F - 46.4 °F 100% 30.15 in 1.8 mi Calm Calm - N/A   Overcast
2:32 AM 46.4 °F - 46.4 °F 100% 30.15 in 2.0 mi Calm Calm - N/A   Overcast
2:43 AM 46.4 °F - 46.4 °F 100% 30.14 in 1.5 mi Calm Calm - N/A   Overcast
2:56 AM 46.9 °F - 46.0 °F 97% 30.15 in 2.0 mi Calm Calm - N/A   Overcast
3:03 AM 46.4 °F - 46.4 °F 100% 30.14 in 1.5 mi Calm Calm - N/A   Overcast
3:10 AM 46.4 °F - 46.4 °F 100% 30.14 in 1.0 mi Calm Calm - N/A   Overcast
3:18 AM 46.4 °F - 46.4 °F 100% 30.14 in 0.8 mi Calm Calm - N/A   Overcast
3:38 AM 46.4 °F - 46.4 °F 100% 30.13 in 1.2 mi Calm Calm - N/A   Overcast
3:56 AM 46.9 °F - 46.0 °F 97% 30.13 in 1.0 mi NE 3.5 mph - N/A   Overcast
4:54 AM 46.4 °F - 46.4 °F 100% 30.13 in 0.8 mi Calm Calm - N/A   Overcast
4:56 AM 46.9 °F - 46.0 °F 97% 30.13 in 1.0 mi Calm Calm - N/A   Overcast
5:05 AM 46.4 °F - 46.4 °F 100% 30.13 in 2.0 mi Calm Calm - N/A   Overcast
5:12 AM 46.4 °F - 46.4 °F 100% 30.13 in 1.2 mi Calm Calm - N/A   Overcast
5:56 AM 44.1 °F 41.5 °F 44.1 °F 100% 30.14 in 1.0 mi East 4.6 mph - N/A   Overcast
6:03 AM 46.4 °F - 44.6 °F 93% 30.13 in 2.0 mi Calm Calm - N/A   Overcast
6:17 AM 46.4 °F - 44.6 °F 93% 30.13 in 1.8 mi Calm Calm - N/A   Overcast
6:21 AM 44.6 °F - 44.6 °F 100% 30.13 in 3.0 mi Calm Calm - N/A   Overcast
6:27 AM 44.6 °F - 44.6 °F 100% 30.13 in 1.8 mi Calm Calm - N/A   Overcast
6:37 AM 44.6 °F - 44.6 °F 100% 30.14 in 1.0 mi Calm Calm - N/A   Overcast
6:56 AM 44.1 °F - 43.0 °F 96% 30.14 in 1.0 mi Calm Calm - N/A   Overcast
7:06 AM 44.6 °F 43.1 °F 44.6 °F 100% 30.14 in 2.0 mi NW 3.5 mph - N/A   Mostly Cloudy
7:09 AM 44.6 °F 43.1 °F 44.6 °F 100% 30.14 in 1.2 mi NW 3.5 mph - N/A   Mostly Cloudy
7:18 AM 44.6 °F - 44.6 °F 100% 30.14 in 0.5 mi Calm Calm - N/A Fog Fog
7:33 AM 44.6 °F - 42.8 °F 93% 30.14 in 0.8 mi Calm Calm - N/A   Overcast
7:47 AM 44.6 °F - 42.8 °F 93% 30.15 in 0.2 mi Calm Calm - N/A Fog Fog
7:56 AM 44.1 °F - 43.0 °F 96% 30.15 in 0.2 mi Calm Calm - N/A Fog Fog
8:26 AM 44.6 °F 43.1 °F 44.6 °F 100% 30.15 in 1.5 mi East 3.5 mph - N/A   Overcast
8:32 AM 44.6 °F 43.1 °F 44.6 °F 100% 30.15 in 3.0 mi East 3.5 mph - N/A   Overcast
8:56 AM 46.9 °F - 46.0 °F 97% 30.16 in 10.0 mi East 3.5 mph - N/A   Overcast
9:56 AM 51.1 °F - 50.0 °F 96% 30.17 in 10.0 mi SE 5.8 mph - N/A   Clear
10:20 AM 51.8 °F - 51.8 °F 100% 30.18 in 4.0 mi South 4.6 mph - N/A   Partly Cloudy
10:56 AM 51.1 °F - 50.0 °F 96% 30.20 in 6.0 mi SW 5.8 mph - N/A   Clear
11:17 AM 51.8 °F - 50.0 °F 94% 30.20 in 5.0 mi SW 4.6 mph - N/A   Partly Cloudy
11:35 AM 51.8 °F - 48.2 °F 88% 30.20 in 5.0 mi SSW 3.5 mph - N/A   Mostly Cloudy
11:56 AM 52.0 °F - 48.9 °F 89% 30.19 in 6.0 mi SSE 6.9 mph - N/A   Mostly Cloudy
12:36 PM 51.8 °F - 48.2 °F 88% 30.18 in 4.0 mi South 8.1 mph - N/A   Mostly Cloudy
12:43 PM 50.0 °F - 48.2 °F 94% 30.18 in 1.5 mi South 8.1 mph - N/A   Overcast
12:45 PM 50.0 °F - 48.2 °F 94% 30.18 in 0.8 mi South 8.1 mph - N/A   Overcast
12:56 PM 50.0 °F - 48.9 °F 96% 30.18 in 0.2 mi South 8.1 mph - N/A Fog Fog
1:13 PM 50.0 °F - 48.2 °F 94% 30.17 in 1.5 mi South 6.9 mph - N/A   Overcast
1:17 PM 50.0 °F - 50.0 °F 100% 30.17 in 3.0 mi SSE 6.9 mph - N/A   Mostly Cloudy
1:34 PM 51.8 °F - 50.0 °F 94% 30.16 in 10.0 mi SSE 6.9 mph - N/A   Scattered Clouds
1:56 PM 52.0 °F - 50.0 °F 93% 30.17 in 10.0 mi SSE 8.1 mph - N/A   Clear
2:19 PM 50.0 °F - 48.2 °F 94% 30.16 in 5.0 mi SSE 8.1 mph - N/A   Partly Cloudy
2:53 PM 50.0 °F - 48.2 °F 94% 30.17 in 1.8 mi South 6.9 mph - N/A   Scattered Clouds
2:56 PM 50.0 °F - 48.0 °F 93% 30.17 in 1.0 mi South 8.1 mph - N/A   Mist
3:03 PM 48.2 °F - 48.2 °F 100% 30.17 in 0.5 mi South 6.9 mph - N/A Fog Fog
3:17 PM 48.2 °F - 46.4 °F 93% 30.17 in 1.5 mi South 5.8 mph - N/A   Mostly Cloudy
3:22 PM 48.2 °F - 48.2 °F 100% 30.17 in 4.0 mi South 4.6 mph - N/A   Mostly Cloudy
3:31 PM 48.2 °F - 48.2 °F 100% 30.17 in 7.0 mi South 4.6 mph - N/A   Scattered Clouds
3:56 PM 48.9 °F - 48.0 °F 97% 30.18 in 9.0 mi Calm Calm - N/A   Partly Cloudy
4:56 PM 48.0 °F - 46.9 °F 96% 30.19 in 7.0 mi Calm Calm - N/A   Clear
5:56 PM 48.0 °F - 46.9 °F 96% 30.20 in 8.0 mi Calm Calm - N/A   Clear
6:56 PM 48.0 °F - 46.9 °F 96% 30.20 in 8.0 mi Calm Calm - N/A   Partly Cloudy
7:25 PM 48.2 °F - 46.4 °F 93% 30.20 in 2.5 mi Calm Calm - N/A   Partly Cloudy
7:35 PM 48.2 °F - 46.4 °F 93% 30.21 in 4.0 mi Calm Calm - N/A   Scattered Clouds
7:48 PM 48.2 °F - 46.4 °F 93% 30.21 in 2.5 mi Calm Calm - N/A   Mostly Cloudy
7:56 PM 48.0 °F - 46.9 °F 96% 30.21 in 2.0 mi SSW 3.5 mph - N/A   Scattered Clouds
8:09 PM 48.2 °F - 46.4 °F 93% 30.21 in 3.0 mi WSW 3.5 mph - N/A   Partly Cloudy
8:56 PM 48.0 °F - 46.9 °F 96% 30.22 in 7.0 mi Calm Calm - N/A   Partly Cloudy
9:56 PM 48.0 °F - 46.0 °F 93% 30.22 in 4.0 mi East 3.5 mph - N/A   Mostly Cloudy
10:56 PM 48.0 °F - 46.9 °F 96% 30.21 in 7.0 mi Calm Calm - N/A   Overcast
11:56 PM 48.9 °F - 48.0 °F 97% 30.22 in 3.0 mi Calm Calm - N/A   Overcast